Regional Weather Roundup
Issued by NWS New Orleans/Baton Rouge, LA

Home | Current Version | Previous Version | Text Only | Print | Product List | Glossary On
Versions: 1 2 3 4 5 6 7 8 9 10 11 12 13 14 15 16 17 18 19 20 21 22 23 24 25 26 27 28 29 30 31 32 33 34 35 36 37 38 39 40 41 42 43 44 45 46 47 48 49 50
000
ASUS44 KLIX 250211
RWRLIX
NEW ORLEANS REGIONAL WEATHER ROUNDUP
NATIONAL WEATHER SERVICE NEW ORLEANS LA
900 PM CDT TUE MAY 24 2016

NOTE: "FAIR" INDICATES FEW OR NO CLOUDS BELOW 12,000 FEET WITH NO
      SIGNIFICANT WEATHER AND/OR OBSTRUCTIONS TO VISIBILITY.
      SKY/WX - SKY CONDITION AND SIGNIFICANT WEATHER.
      TMP - AIR TEMPERATURE.     DP    - DEWPOINT TEMPERATURE.
      RH  - RELATIVE HUMIDITY.   PRES  - PRESSURE.
      HI  - HEAT INDEX.          WCI   - WIND CHILL INDEX.

*  THESE STATIONS ARE NOT NWS OR FAA STATIONS AND ARE NOT UNDER
   NWS QUALITY CONTROL.

LAZ038-040-048-061>063-065>067-069-250300-
SOUTHEAST LOUISIANA

CITY           SKY/WX    TMP DP  RH WIND       PRES   REMARKS
N.O. AUDUBON     N/A     79  72  81 MISG        N/A
N.O. INTL ARPT PTCLDY    80  71  74 SE9       30.09R
N.O. LAKEFRONT CLEAR     79  70  74 SE12      30.10R
N.O. DOWNTOWN*   N/A     79  72  79 VRB3      30.10R
RESERVE*         N/A     79  72  79 SE8       30.09R
SLIDELL        PTCLDY    76  70  82 E3        30.10R
BATON ROUGE    MOCLDY    79  70  74 E8        30.07R
BOOTHVILLE     CLEAR     75  71  87 SE3       30.11R
BELLE CHASSE   PTCLDY    78  72  81 SE8       30.09R
BOGALUSA*        N/A     77  67  70 SE6       30.12R
GALLIANO*      PTCLDY    78  73  83 SE3       30.09R
NEW ROADS*       N/A     80  72  76 SE8       30.07R
GONZALES*        N/A     80  71  74 S7        30.07R
HAMMOND*       CLEAR     77  68  73 SE6       30.09R
HOUMA*           N/A     76  73  91 SE5       30.09R
PORT FOURCHON* MOCLDY    79  73  83 SE12G18   30.10R

$$

MSZ070-080>082-250300-
SOUTHERN MISSISSIPPI

CITY           SKY/WX    TMP DP  RH WIND       PRES   REMARKS
MCCOMB         CLEAR     75  67  76 S7        30.10R
GULFPORT       CLEAR     77  67  71 SE7       30.11R
BILOXI         PTCLDY    77  69  76 S6        30.11R
PASCAGOULA     CLEAR     68  66  93 CALM      30.12R
STENNIS ARPT*  PTCLDY    75  64  69 SE5       30.11R

$$

COASTAL OBSERVATIONS
LAKE AND NEARSHORE STATIONS

STATION/POSITION TIME  TEMP    WIND        PRES    WAVE
                       AIR SEA DIR/SP/G            HT/PER
                 (UTC) (F)     (DEG/KT/KT) (MB)    (FT/S)
PASCAGOULA       0100                      1019.2
WAVELAND YACHT   0100      81              1019.1
GRAND ISLE       0100      82              1018.4
SOUTHWEST PASS   0100          130/ 11/ 16   N/A
NEW CANAL        0100      81              1017.9
SHELL BEACH      0100      82              1019.1

OFFSHORE STATIONS

STATION/POSITION TIME  TEMP    WIND        PRES    WAVE
                       AIR SEA DIR/SP/G            HT/PER
                 (UTC) (F)     (DEG/KT/KT) (MB)    (FT/S)
64 S DAUPHIN ISL 0100   78 78  120/ 10/ 12 1019.3

$$




USA.gov is the U.S. government's official web portal to all federal, state and local government web resources and services.